STARLINK-4593, 53633

Orbit data source: Space-Track

STARLINK-4593, 53633 is a payload satellite owned by SpaceX/Seattle (US) in LEO that was launched on Sun, 28 Aug 2022 UTC via an FALCON 9 launch vehicle from the Air Force Eastern Test Range (AFETR). Payload-class satellites include a variety of spacecraft equipped with specific instruments for various scientific and technological missions. These include communications satellites like Starlink; space stations such as the ISS; scientific satellites like the Hubble; Earth observation satellites from companies like Planet Labs, Umbra, and HawkEye 360; GPS; miniature CubeSats for education and research; and military/defense satellites.

Loading next visibility...
Identifier
53633, 2022-104AX
Orbit
LEO
Country
Flag of USUS
Related business
Manufacturer
SpaceX/Seattle
Mission
Operational Commercial Communications
Bus & Motor
STARLINK, Unknown motor
Mass
300 kg wet, ~290 kg dry
Launch date (UTC)
2022-08-28 (4 years ago)
Launch vehicle
FALCON 9
Launch site
Air Force Eastern Test Range (AFETR)
Object type
Payload
Rocket body
Debris
Shape & HBR
Box + 1 Pan, 10.1 m
Radar Cross Section
13.562 m², Large (>1 m²)

Expand to show TLE details & history
Last TLE update: 1 day ago

TLE from 1 day ago
0 STARLINK-4593
1 53633U 22104AX  26253.00002315  .00046394  00000-0  13773-2 0  9997
2 53633  53.1578 110.6183 0001090  84.7226  88.3129 15.34364370  5855
Epoch: 2026-09-10T00:00Z
TLE epoch observation values (Epoch: 2026-09-10T00:00:02.000Z)
Latitude
5.51289°
Longitude
-62.55796°
Altitude
463.141 km
Speed
7.637 km/s
True Right ascension
19h 05m 58s
True Declination
5° 28' 43"
Sunlit
Object was in full shadow at epoch
Visualization orbit readout
Latitude
Unknown
Longitude
Unknown
Altitude
Unknown
Speed
Unknown
Apparent Right ascension
Unknown
Apparent Declination
Unknown
Sunlit
N/A
Visualization observer readout
Local Sidereal Time
17:48:07
Azimuth
Unknown
Elevation
Unknown
Doppler factor
Unknown
Orbital elements
Apogee altitude
463.812 km
Perigee altitude
462.321 km
Semi-major axis
6,841.203 km
Eccentricity
0.00011
Inclination
53.1578°
RAAN
110.6183°
Arg. of periapsis
84.7226°
True anomaly
88.32539°
Mean anomaly
88.3129°
Eccentric anomaly
88.31914°
Mean motion
3.8357 °/min
Orbital period
93.86 mins
BSTAR
0.0013773
Loading maneuver chart data...
Computing Atmospheric mass density...
Loading historical data...
Loading historical data...
Loading historical data...
Loading historical data...
Loading historical data...
Loading historical data...
Loading historical data...

Documentation

Showing up to 5 results
|